Wind_Speed
59 59 58 57 56 56 55 55 54 54 54 54 54 54 54 54 54 54 54 54 54 54 54 54 54 54 53 52 51 50 49 47 46 46 48 49 50 50 49 46 43 41 40 39 39 38 37 36 36 35 34 34 33 33 33 34 34 34 34 34 34 34 34 35 36 37 38 39 39 40 40 39 38 38 37 36 34 33 32 32 32 32 33 34 34 33
59 58 58 57 56 56 56 56 55 54 55 55 55 55 55 55 55 54 54 54 54 54 54 54 54 54 53 52 51 51 49 48 47 46 47 48 49 49 48 45 42 41 40 40 39 39 38 37 37 36 35 35 34 34 34 34 34 34 34 34 34 34 34 35 36 37 38 38 39 39 39 39 38 37 36 35 34 33 32 32 32 32 33 33 33 32
57 57 57 56 56 56 56 56 56 55 55 55 55 55 55 55 55 55 55 54 54 54 54 54 54 54 53 52 52 51 50 48 47 47 46 46 47 46 45 43 42 41 41 41 40 40 39 38 38 37 37 36 36 35 35 35 35 35 34 34 34 34 34 35 36 36 37 38 38 39 38 38 38 37 36 34 33 32 31 31 32 32 32 32 32 31
55 56 55 55 55 55 55 56 56 55 55 55 55 55 54 55 55 55 55 55 54 54 54 54 54 53 53 52 51 50 49 48 48 47 46 46 45 44 43 42 42 42 41 41 41 41 40 39 39 39 38 37 37 36 36 36 35 35 35 35 34 34 35 35 36 36 37 38 38 38 38 37 37 36 35 34 33 32 31 31 31 31 31 31 30 30
55 54 54 54 54 54 55 55 55 55 55 54 54 54 54 54 54 54 54 54 54 54 54 53 53 53 52 52 51 50 49 48 48 47 46 45 45 44 43 42 42 42 42 42 42 42 41 41 40 40 39 39 38 37 37 36 36 36 35 35 35 35 35 35 36 36 37 38 38 38 38 37 36 35 34 33 32 32 31 31 31 30 30 30 29 29
55 55 55 54 54 54 54 54 55 55 54 54 54 53 53 53 53 53 53 53 53 53 53 52 52 52 51 51 50 50 49 49 48 48 47 46 45 44 44 43 43 43 43 43 43 43 42 42 41 41 40 40 39 39 38 37 37 37 36 36 36 35 35 36 36 37 37 38 38 38 38 37 36 35 34 33 32 31 31 30 30 30 29 29 28 28
57 57 56 56 56 55 55 55 55 55 55 55 54 53 53 52 52 52 52 52 52 52 52 52 51 51 51 50 50 50 50 49 49 48 48 47 47 46 45 44 44 44 45 45 44 44 43 43 42 42 41 41 40 40 39 39 38 38 37 37 36 36 36 36 37 37 38 38 38 38 38 37 36 35 34 33 32 31 30 29 29 29 28 28 28 27
60 60 59 59 58 58 57 57 57 56 56 56 55 55 54 53 53 52 52 52 51 51 51 51 51 51 51 51 51 51 51 51 50 50 49 49 48 48 47 46 46 46 46 46 45 45 44 44 43 43 43 42 41 41 40 40 39 39 38 37 37 36 36 37 37 38 38 38 38 38 37 37 36 35 33 32 31 30 30 29 28 28 28 28 27 27
63 63 62 61 61 61 60 60 59 59 59 58 58 57 56 55 55 54 54 53 53 52 52 52 52 52 52 52 52 52 52 52 52 52 51 51 50 50 49 48 48 48 48 48 47 46 46 45 45 44 44 43 43 42 41 41 40 40 39 38 38 37 37 37 38 38 38 38 38 38 37 37 36 34 33 32 31 30 29 28 28 28 28 27 27 27
66 65 64 64 63 63 63 62 62 61 61 61 61 60 59 58 58 57 56 56 55 55 54 54 54 54 54 54 54 54 54 54 54 54 53 53 52 52 51 50 50 49 49 49 48 48 47 47 46 46 45 44 44 43 42 42 41 40 40 39 38 38 37 37 38 38 38 38 38 38 37 37 36 34 33 32 30 29 29 28 28 28 28 28 27 27
67 66 66 65 65 64 64 64 64 63 63 63 63 62 62 61 60 60 59 59 58 57 57 57 57 57 56 56 56 56 56 56 56 56 55 55 54 54 53 52 51 51 50 50 50 49 49 48 47 47 46 46 45 44 43 43 42 41 40 40 39 38 38 38 38 38 39 39 38 38 38 37 36 34 33 31 30 29 29 28 28 28 28 28 27 27
68 67 67 66 66 66 65 65 65 65 65 65 65 64 64 63 63 62 62 62 61 60 60 60 60 59 59 59 59 58 58 58 58 57 57 57 56 56 55 54 53 52 52 52 51 51 50 50 49 48 47 47 46 45 44 44 43 42 41 40 39 39 38 38 38 38 39 39 39 38 38 37 36 35 33 32 30 29 29 28 28 28 28 28 28 27
68 68 67 67 67 66 66 66 66 66 66 66 66 66 66 65 65 65 65 64 64 63 63 63 62 62 61 61 61 61 60 60 60 59 59 58 58 57 57 56 55 54 53 53 52 52 51 51 50 49 48 48 47 46 45 45 44 43 42 41 40 39 39 38 38 38 39 39 39 39 38 38 36 35 33 32 31 30 29 28 28 28 29 28 28 28
68 68 68 68 67 67 66 66 66 67 67 67 67 67 67 67 67 67 66 66 66 65 65 65 64 64 63 63 63 63 62 62 61 61 60 60 59 59 58 57 57 55 55 54 53 53 52 52 51 50 49 49 48 47 46 45 44 43 42 41 40 40 39 39 38 39 39 39 39 39 39 38 37 35 34 32 31 30 29 29 29 29 29 29 28 28
69 69 69 68 67 67 67 67 67 67 67 67 67 67 68 68 68 68 68 67 67 67 66 66 66 66 65 65 64 64 64 64 63 62 62 61 61 60 60 59 58 57 56 55 54 54 53 53 52 51 50 49 49 48 47 46 45 44 43 42 41 40 39 39 39 39 39 39 39 39 39 38 37 35 34 32 31 30 30 29 29 29 29 29 28 28
70 70 70 69 68 68 67 67 67 67 67 67 67 68 68 68 68 68 68 68 68 68 68 68 67 67 66 66 66 65 65 65 64 64 63 62 62 61 61 60 60 58 57 56 55 55 54 53 53 52 51 50 49 49 48 47 46 45 43 42 41 41 40 39 39 39 39 39 40 39 39 38 37 36 34 33 32 31 30 30 30 30 30 29 29 28
72 71 71 71 70 69 69 68 68 68 68 68 68 68 68 69 69 69 69 69 69 69 69 69 68 68 67 67 66 66 66 66 66 65 64 63 63 62 62 61 61 60 58 57 56 55 55 54 53 52 51 51 50 49 49 48 47 45 44 43 42 41 40 40 40 40 40 40 40 40 39 38 37 36 34 33 32 31 31 31 30 30 30 30 29 28
75 74 73 72 72 71 70 70 70 69 69 68 68 69 69 69 69 69 70 70 70 70 70 69 69 68 68 67 67 67 66 67 67 66 65 64 64 63 62 62 62 61 59 58 57 56 55 54 54 53 52 51 51 50 49 48 47 46 45 43 42 42 41 40 40 40 40 40 40 40 40 39 37 36 35 33 33 32 31 31 31 31 31 30 29 29
78 76 75 75 74 73 73 72 71 71 70 70 70 69 69 70 70 70 70 70 70 70 70 70 69 69 68 68 67 67 67 67 67 67 66 65 64 63 63 62 62 61 60 59 58 57 56 55 54 53 53 52 52 51 50 49 48 46 45 44 43 42 41 41 41 41 41 41 41 40 40 39 38 36 35 34 33 32 32 32 32 31 31 30 30 29
80 79 78 77 77 76 75 74 73 73 72 72 72 71 71 70 70 70 70 70 70 70 70 70 69 69 68 68 68 68 68 68 68 68 67 66 64 64 63 63 62 61 60 59 58 57 56 55 55 54 53 53 52 51 51 49 48 47 46 45 44 43 42 41 41 41 41 41 41 41 40 39 38 37 35 34 34 33 33 33 32 32 32 31 30 30
83 82 81 80 80 79 78 77 76 75 75 74 74 74 73 72 71 71 71 71 70 71 70 70 70 69 69 69 69 69 68 68 68 68 67 66 65 64 63 62 62 61 61 59 58 57 57 56 55 55 54 53 53 52 51 50 49 48 47 45 44 43 43 42 42 42 42 42 42 41 41 40 38 37 36 35 34 34 33 33 33 33 32 31 31 30
87 86 85 83 83 82 81 80 79 78 77 77 76 76 75 74 73 72 72 72 71 71 71 70 70 69 69 69 69 69 68 68 68 68 67 66 65 64 63 62 62 62 61 60 59 58 57 56 56 55 55 54 53 52 52 50 49 48 47 46 45 44 43 43 42 42 42 42 42 42 41 40 39 37 36 35 35 34 34 34 33 33 32 32 31 31
91 90 88 87 86 85 85 84 83 81 81 80 79 78 77 76 75 74 74 73 73 72 72 71 70 70 70 69 69 68 68 68 67 67 67 66 65 64 63 62 62 62 61 60 59 58 58 57 56 56 55 55 54 53 52 51 50 49 48 47 46 45 44 43 43 43 42 42 42 42 41 40 39 38 37 36 35 35 35 34 34 33 33 32 32 31
95 93 92 91 90 89 88 87 86 85 84 83 82 81 80 78 77 77 76 75 74 74 73 72 71 71 70 69 69 68 68 67 67 67 67 66 65 64 63 62 62 62 61 60 59 58 58 58 57 56 56 55 55 54 53 52 51 49 48 47 46 45 44 44 43 43 43 43 43 42 42 41 39 38 37 36 36 35 35 35 34 34 33 33 32 32
98 97 96 95 94 93 92 91 90 89 87 86 85 84 82 81 80 79 79 78 77 75 74 73 72 71 70 69 69 68 68 67 67 67 67 66 65 64 63 63 62 62 61 60 59 59 58 58 58 57 56 56 55 54 53 52 51 50 49 48 47 46 45 44 44 43 43 43 43 42 42 41 39 38 37 36 36 36 35 35 35 34 34 33 33 32
100 99 98 97 96 95 95 94 93 92 91 90 89 87 85 84 83 82 82 81 79 78 76 75 74 72 71 70 69 68 68 67 67 67 67 66 65 64 64 63 62 62 61 60 59 59 59 58 58 57 57 56 55 54 53 53 52 51 49 48 47 46 45 45 44 44 43 43 43 43 42 41 39 38 37 36 36 36 36 36 35 35 34 34 33 33
102 101 100 99 98 97 97 96 95 95 94 93 92 90 89 87 86 85 85 83 82 80 78 77 75 74 72 70 69 69 68 68 67 67 67 66 66 65 64 63 62 62 61 61 60 59 59 59 58 58 57 56 56 55 54 53 52 51 50 49 48 47 46 45 44 44 44 43 43 43 42 41 40 38 37 37 36 36 36 36 36 36 35 34 34 33
104 103 101 100 99 98 98 97 96 96 95 95 94 93 92 90 89 88 87 86 84 82 81 80 78 76 74 72 70 69 69 68 68 68 67 67 66 66 64 63 63 62 62 61 60 60 59 59 59 58 57 56 56 55 54 53 52 51 50 49 48 47 46 45 45 44 44 44 43 43 42 41 40 38 37 37 37 37 37 37 36 36 35 35 34 33
104 103 102 101 100 99 98 97 97 96 96 95 95 94 94 93 92 91 90 88 86 85 83 82 80 78 76 74 72 71 70 69 69 68 67 67 67 66 65 64 63 63 62 61 61 60 60 59 59 58 57 57 56 55 54 54 53 52 51 49 48 47 46 46 45 45 44 44 43 43 42 41 39 38 37 37 37 37 37 37 37 37 36 35 34 34
104 103 101 101 100 99 98 97 97 96 96 95 95 95 95 94 93 92 91 90 88 87 86 85 83 81 78 76 74 72 71 70 69 68 68 68 67 67 65 64 63 63 62 62 61 61 60 60 59 58 57 57 56 55 55 54 53 52 51 50 48 47 47 46 45 45 45 44 44 43 42 41 39 38 37 37 37 37 37 37 37 37 36 36 35 34
102 101 99 99 98 98 97 96 96 96 95 94 94 94 95 95 94 94 92 91 90 89 88 87 85 83 81 79 76 74 72 71 70 69 69 69 68 67 66 65 64 64 63 62 62 61 61 60 59 58 57 57 56 55 55 54 53 52 51 50 49 48 47 46 46 45 45 44 44 43 42 41 39 38 37 37 37 37 37 38 38 37 37 36 35 34
99 98 97 96 96 95 94 94 94 94 94 93 93 93 94 94 94 94 93 92 91 90 89 88 87 85 83 81 78 76 74 72 70 70 70 70 69 68 66 65 65 64 63 62 62 62 61 60 59 58 58 57 56 56 55 54 53 52 51 50 49 48 48 47 46 46 45 45 44 43 42 40 39 38 37 37 37 37 38 38 38 38 37 36 35 34
96 95 94 94 93 92 91 90 91 91 91 92 92 92 93 93 93 94 93 92 91 91 90 89 88 87 85 83 80 78 75 73 72 72 72 71 70 69 67 66 65 65 64 63 63 62 62 61 60 59 58 57 57 56 55 54 54 53 52 51 50 49 48 47 47 46 45 45 44 43 41 40 39 38 37 37 37 38 38 39 39 38 37 36 35 34
92 91 91 90 89 89 88 87 87 88 89 90 90 91 91 92 92 93 93 92 91 91 90 90 89 88 86 84 82 80 77 75 74 73 73 72 71 70 68 67 66 65 65 64 63 63 62 61 60 59 59 58 57 56 55 55 54 53 52 51 50 49 49 48 47 46 45 44 43 42 41 40 39 38 37 37 38 38 39 39 39 38 38 36 35 35
88 87 87 87 86 86 85 84 84 84 86 87 88 89 90 90 91 92 92 92 91 90 90 90 89 88 87 85 83 81 79 77 75 74 74 73 72 70 69 67 67 66 65 65 64 63 62 62 61 60 59 58 57 57 56 55 54 53 52 51 50 49 49 47 47 46 45 44 43 42 40 39 38 37 37 37 38 38 39 39 39 38 38 37 36 35
85 85 84 84 83 82 82 81 81 81 82 84 86 87 88 89 90 90 91 91 90 90 89 89 89 88 87 85 84 82 80 78 76 75 75 74 73 71 69 68 67 66 65 65 64 64 63 62 61 60 60 59 58 57 56 55 54 53 52 51 50 49 48 47 46 45 45 44 42 41 40 39 38 37 37 38 38 39 39 39 39 38 38 37 36 35
82 82 82 81 80 80 79 78 78 78 78 80 83 85 86 87 88 89 89 90 89 89 88 88 88 87 87 86 84 83 81 79 77 76 75 75 73 71 70 69 68 67 66 65 65 64 63 62 62 61 60 59 58 57 56 55 54 53 52 51 50 49 48 47 46 45 44 43 42 41 39 38 37 37 37 38 38 39 39 40 39 39 38 37 36 35
78 79 79 78 77 77 76 76 75 75 75 76 79 82 84 85 86 87 88 88 88 88 88 87 87 87 86 85 84 83 81 80 78 77 76 75 73 72 70 69 68 67 66 65 65 64 63 62 62 61 60 59 58 57 55 54 53 53 52 51 50 49 47 46 45 45 44 43 42 40 39 38 37 37 37 38 39 39 40 40 39 39 38 37 36 35
73 74 74 74 74 74 73 73 72 72 72 73 75 78 81 83 84 85 86 86 87 87 87 87 86 86 85 84 84 82 81 80 79 77 76 75 73 72 70 69 68 67 66 65 65 64 63 62 62 61 59 58 57 56 55 54 53 52 51 50 49 48 47 46 45 44 43 42 41 40 39 37 37 37 37 38 39 40 40 40 40 39 38 37 36 35
67 68 69 70 70 70 70 70 70 70 70 71 72 75 78 80 82 83 84 84 85 85 86 86 85 85 84 83 82 81 80 79 78 77 76 74 73 72 70 69 67 66 65 65 64 64 63 62 61 60 59 58 57 56 55 54 53 52 51 50 48 47 46 45 44 43 42 41 40 39 38 37 37 37 38 39 40 40 40 40 39 39 38 37 36 35
62 63 64 65 66 66 66 67 67 67 68 68 70 72 74 77 79 80 80 81 81 82 84 84 84 83 83 82 81 80 79 78 77 76 75 74 72 71 69 68 67 65 64 63 63 63 62 61 61 60 58 57 56 55 54 53 52 51 50 49 48 47 45 44 43 42 41 40 39 38 37 37 37 37 38 39 40 41 41 40 39 38 38 37 36 35
57 58 59 60 61 62 62 63 63 63 64 66 68 69 71 73 75 76 76 76 77 78 80 82 82 81 80 80 79 79 78 77 76 75 74 72 71 70 68 67 66 64 63 62 62 62 61 60 60 59 58 57 56 54 54 53 52 51 49 48 47 46 45 44 43 41 40 39 38 37 36 36 37 38 39 40 41 41 41 40 39 38 37 37 36 35
53 53 54 55 56 57 58 59 59 60 61 62 64 66 68 70 71 72 72 71 71 73 76 78 79 79 78 78 77 76 76 75 74 73 71 70 69 68 67 66 64 63 62 61 60 60 60 59 58 57 57 56 55 54 53 52 51 50 48 47 46 45 44 43 42 40 39 38 37 36 36 36 37 38 40 40 41 41 41 40 39 38 37 36 35 35
50 50 50 50 52 53 54 55 55 56 57 59 61 63 65 67 68 68 67 66 66 67 71 74 76 76 76 75 75 74 73 72 71 70 69 68 67 66 65 63 62 61 60 59 59 58 58 57 56 56 55 54 53 52 52 51 49 48 47 46 45 44 42 41 40 39 38 37 36 36 36 37 38 39 40 41 41 41 40 39 39 38 37 36 35 34
46 46 46 47 47 49 50 51 52 53 54 55 57 59 61 63 64 64 63 60 59 61 65 69 71 71 72 73 72 72 70 69 68 67 66 65 64 63 62 61 60 59 58 57 57 56 56 55 55 54 54 53 52 51 50 49 48 47 46 45 43 42 41 40 39 38 37 36 36 35 36 37 38 40 41 41 41 41 40 39 38 38 37 36 35 34
42 42 42 43 44 45 46 47 48 49 50 52 53 55 56 58 59 59 58 56 55 57 61 63 64 65 67 69 69 69 68 67 65 64 63 62 62 61 60 58 57 56 55 55 55 55 54 53 53 53 52 51 50 50 49 47 46 45 44 43 42 41 40 39 38 37 36 35 35 36 37 38 39 40 41 41 41 40 39 39 38 37 36 36 35 34
39 38 39 39 40 41 42 43 44 45 46 47 49 50 52 53 54 54 54 53 54 55 57 57 58 59 61 64 65 65 65 64 62 61 60 59 59 58 57 56 55 54 53 53 52 52 52 52 52 52 51 50 49 48 47 46 45 44 43 42 41 39 38 37 36 36 35 35 35 36 37 39 40 41 42 42 41 40 39 38 37 37 36 35 35 34
35 35 35 36 37 37 38 39 39 40 41 43 45 46 47 48 49 50 50 52 53 53 52 51 53 55 57 59 60 61 61 60 59 58 57 56 56 55 54 53 52 51 51 51 50 50 50 50 50 50 50 48 47 46 46 45 44 43 41 40 39 38 37 36 35 34 34 35 36 37 38 40 41 42 42 41 40 39 38 38 37 36 36 35 35 35
32 32 33 33 33 33 33 34 34 35 36 38 39 41 42 44 45 47 48 49 50 49 47 47 48 50 52 53 55 56 57 57 56 55 54 54 53 52 51 51 50 49 49 48 48 48 48 48 48 48 48 47 46 45 44 43 43 42 40 39 38 36 35 34 34 34 34 36 37 38 40 41 42 42 42 41 40 39 38 37 37 36 36 35 35 35
29 29 29 29 28 28 28 28 29 29 30 31 33 34 36 38 40 42 44 45 45 44 43 43 44 45 46 47 49 51 52 53 53 52 52 51 50 50 49 48 47 47 47 47 47 46 47 47 47 46 46 45 45 44 43 42 41 40 39 38 36 35 34 33 34 34 35 37 39 40 42 43 43 42 41 40 39 38 38 37 37 36 36 35 35 34
26 25 25 24 23 22 22 22 23 23 24 25 26 27 29 32 34 36 38 39 39 39 40 41 42 43 43 44 45 47 49 49 49 49 49 48 48 47 46 46 45 45 45 45 45 45 45 45 45 44 44 44 43 42 41 40 39 38 37 36 35 33 33 34 34 36 37 39 41 42 43 43 42 41 40 39 38 37 37 37 36 36 36 35 34 34
Wind_Direction
279 278 277 276 275 274 273 272 271 271 270 269 269 268 268 268 267 267 267 267 267 267 267 267 268 268 268 268 268 268 268 266 263 261 261 263 265 266 266 266 266 265 265 266 266 267 267 268 268 269 270 270 271 272 273 274 276 278 280 282 284 287 289 291 293 294 295 296 297 299 300 300 301 301 302 302 302 302 301 299 297 295 292 289 285 282
277 277 276 276 275 274 273 272 271 270 269 269 268 268 268 267 267 267 266 266 266 266 267 267 267 267 267 267 267 267 267 266 264 261 259 259 260 261 262 263 263 263 263 264 265 265 266 267 267 268 268 269 270 271 272 273 275 277 279 281 284 286 288 290 292 293 294 296 297 298 299 300 301 301 302 302 302 301 300 298 296 293 290 287 283 279
276 276 275 275 274 274 273 272 271 270 269 269 268 268 267 267 267 267 266 266 266 266 266 266 267 267 267 267 266 266 266 265 264 262 261 259 259 259 260 261 262 262 262 263 263 264 265 266 266 267 267 268 269 270 271 272 274 276 278 280 283 285 287 289 291 292 294 295 296 297 298 299 300 301 302 302 301 300 299 297 294 291 288 285 281 277
276 275 275 274 274 273 273 272 272 271 270 269 268 268 267 267 267 266 266 266 266 266 265 266 266 266 266 266 266 265 265 265 264 263 262 261 260 260 259 260 261 261 262 262 263 263 264 265 265 266 266 267 268 269 270 272 273 275 277 280 282 284 286 288 290 292 293 294 295 296 297 299 300 300 301 301 300 299 298 295 293 290 286 283 278 273
276 275 275 274 273 273 272 272 272 271 271 270 269 268 268 267 267 266 266 266 265 265 265 265 265 265 265 265 265 265 264 264 263 263 262 261 261 260 260 260 260 261 261 262 262 263 264 264 265 265 266 267 268 269 270 271 273 275 277 279 281 283 285 287 289 291 292 293 295 296 297 298 299 299 300 300 300 298 296 294 291 288 284 280 275 270
276 275 275 274 274 273 273 272 271 271 271 270 270 269 268 267 267 266 266 265 265 265 265 264 264 264 264 264 264 264 263 263 263 262 262 262 261 261 260 260 260 261 261 261 262 263 263 264 265 265 266 266 267 268 270 271 272 274 276 278 280 282 284 286 288 290 291 293 294 295 297 298 299 299 299 299 298 297 295 293 290 286 282 277 272 268
276 276 275 274 274 273 273 272 272 271 271 270 270 269 268 268 267 266 266 265 265 264 264 264 264 263 263 263 263 263 263 263 262 262 262 262 262 261 261 261 261 261 261 262 262 262 263 263 264 265 265 266 267 268 269 270 272 273 275 277 279 281 283 285 287 289 290 292 294 295 296 297 298 299 299 298 297 296 293 291 287 284 279 274 270 266
276 275 275 274 274 273 273 272 272 271 271 270 270 269 268 268 267 266 265 265 264 264 263 263 263 263 262 262 262 262 262 262 262 262 262 262 262 262 262 262 262 262 262 262 262 262 263 263 263 264 265 265 266 267 268 269 271 272 274 275 277 280 282 284 286 288 290 291 293 294 296 297 297 297 297 297 296 294 292 289 285 281 276 272 268 266
276 275 275 274 274 273 273 272 272 271 271 270 270 269 268 267 267 266 265 265 264 263 263 263 262 262 262 261 261 261 261 262 262 262 263 263 263 263 262 262 262 262 262 263 263 263 263 263 263 263 264 264 265 266 267 268 269 271 272 274 276 278 281 283 285 287 288 290 292 293 295 295 296 296 296 295 294 292 289 286 282 278 273 269 267 265
276 276 275 274 274 273 273 272 272 271 271 270 270 269 268 268 267 266 266 265 264 264 263 262 262 261 261 261 261 261 261 262 262 262 263 263 263 263 263 262 262 262 262 263 263 263 263 263 263 263 263 264 264 265 266 267 268 269 271 273 275 277 279 281 283 285 287 289 291 292 293 294 294 294 294 293 292 290 287 283 279 274 270 267 265 264
276 275 275 274 274 273 272 272 271 271 270 270 269 269 268 268 267 266 266 265 264 264 263 262 262 261 261 261 261 261 261 261 262 262 262 263 263 263 263 262 262 262 262 262 263 263 263 263 263 263 263 263 264 264 265 266 267 268 270 271 273 275 277 280 282 284 286 288 289 291 292 292 293 292 292 291 290 287 284 280 276 271 268 266 264 263
275 275 274 274 273 273 272 272 271 271 270 270 269 269 268 268 267 266 266 265 264 263 263 262 262 261 261 261 261 261 261 261 261 262 262 262 262 262 262 262 262 262 262 262 262 262 262 262 262 262 262 263 263 264 264 265 266 267 268 270 272 274 276 278 280 283 285 286 288 289 290 291 291 291 290 289 288 285 282 278 274 270 267 265 264 263
275 274 274 273 273 272 272 271 271 270 270 269 269 269 268 268 267 266 265 265 264 264 263 263 262 262 261 261 261 261 261 261 261 261 261 262 262 262 262 262 262 262 261 261 262 262 262 262 262 262 262 262 263 263 263 264 265 266 267 269 270 272 274 277 279 281 283 285 287 288 288 289 289 289 288 287 286 283 280 276 272 269 266 265 264 263
274 274 273 272 272 271 271 270 270 269 269 269 268 268 268 267 266 266 265 265 264 264 263 263 262 262 262 261 261 261 261 261 261 261 261 261 261 262 262 262 261 261 261 261 261 261 261 261 262 262 262 262 262 262 263 263 264 265 266 268 269 271 273 275 277 279 281 283 285 286 287 287 287 287 286 285 284 281 278 275 271 268 266 265 264 264
273 273 272 272 271 271 270 270 269 269 268 268 267 267 267 266 266 265 265 265 264 264 263 263 262 262 262 261 261 261 261 261 260 260 260 261 261 261 261 261 261 261 261 261 260 260 261 261 261 261 261 261 261 262 262 262 263 264 265 266 268 269 271 273 275 277 279 281 283 284 285 285 285 285 284 283 281 279 276 273 270 268 266 265 264 264
273 273 272 272 271 271 270 270 269 268 268 267 267 266 266 265 265 265 264 264 264 263 263 262 262 262 261 261 261 261 261 261 260 260 260 260 260 260 261 261 261 261 260 260 260 260 260 260 260 261 261 261 261 261 261 262 262 263 264 265 266 268 270 271 273 275 277 279 281 282 283 283 283 283 282 281 279 277 275 272 269 268 266 265 265 264
273 272 272 272 271 271 270 269 269 268 267 266 266 265 265 265 264 264 263 263 263 263 262 262 262 261 261 261 261 261 261 261 260 260 260 260 260 260 260 260 261 261 260 260 260 260 260 260 260 260 260 260 260 260 261 261 261 262 263 264 265 266 268 270 271 273 275 277 279 280 281 281 281 281 280 279 277 275 273 270 268 267 266 265 264 264
273 272 272 272 271 270 270 269 268 268 267 266 265 265 264 264 263 263 263 262 262 262 262 262 261 261 261 261 260 260 260 260 260 260 259 259 259 259 259 260 260 260 260 260 260 260 260 260 260 260 260 260 260 260 260 260 261 261 262 263 264 265 266 268 270 271 273 275 277 278 279 279 279 279 278 277 275 273 271 268 267 265 265 264 264 263
273 272 272 271 271 270 269 269 268 268 267 266 265 264 263 263 262 262 262 262 261 261 261 261 261 261 260 260 260 260 259 259 259 259 259 259 259 259 259 259 259 260 260 260 260 260 259 259 259 259 259 259 259 259 259 259 260 260 260 261 262 263 265 266 268 270 271 273 275 276 277 278 277 277 276 275 273 271 269 267 265 264 264 264 263 263
273 272 271 271 270 270 269 268 268 267 267 266 265 264 263 262 262 262 261 261 261 260 260 260 260 260 260 259 259 259 258 258 258 258 258 258 258 258 258 258 259 259 259 259 259 259 259 259 259 258 258 258 258 258 258 258 258 259 259 260 261 262 263 264 266 268 270 271 273 275 276 276 276 275 274 273 271 269 267 265 264 263 263 263 263 262
272 272 271 271 270 269 269 268 267 267 266 266 265 264 263 263 262 261 261 260 260 260 259 259 259 259 259 258 258 258 258 258 258 258 258 258 258 258 258 258 258 258 258 258 258 258 258 258 258 258 258 257 257 257 257 257 257 257 258 258 259 260 261 263 264 266 268 270 271 273 274 275 275 274 273 271 270 267 265 264 262 262 262 262 262 262
273 272 271 270 270 269 269 268 267 266 265 265 264 264 264 263 262 261 261 260 259 259 259 258 258 258 258 257 257 258 258 257 257 258 258 258 257 257 257 257 257 257 257 257 257 257 257 257 257 257 257 256 256 256 256 256 256 256 257 257 258 259 260 261 263 264 266 268 270 271 273 273 273 273 272 270 268 266 264 262 261 260 260 260 260 261
273 272 271 270 269 269 268 267 267 266 265 264 264 264 263 263 262 261 260 260 259 258 258 258 257 257 257 257 257 257 257 257 257 257 257 257 257 257 256 256 256 256 256 256 256 256 256 256 256 256 255 255 255 255 255 255 255 255 255 256 257 257 259 260 261 263 265 267 268 270 271 272 272 272 271 269 267 265 263 261 260 259 259 259 259 259
273 272 271 270 269 269 268 267 266 265 265 264 263 263 263 262 262 261 260 259 259 258 257 257 257 256 256 256 256 256 256 256 256 256 256 256 256 256 256 255 255 255 255 255 255 255 255 254 254 254 254 254 254 254 254 254 254 254 254 255 255 256 257 259 260 262 263 265 267 269 270 271 271 270 269 268 266 264 262 260 259 258 258 258 258 258
272 272 271 270 269 268 267 266 266 265 264 263 263 262 262 261 261 260 260 259 258 258 257 257 256 256 255 255 255 255 255 255 255 255 255 255 255 255 254 254 254 254 254 254 253 253 253 253 253 253 253 253 253 253 253 253 253 253 253 254 254 255 256 258 259 261 262 264 266 267 269 270 270 269 268 266 265 263 261 259 258 257 257 257 257 257
272 271 270 270 269 268 267 266 265 264 264 263 262 261 261 260 259 259 259 258 258 257 257 256 256 255 255 255 255 254 255 254 254 254 254 254 254 254 253 253 253 253 253 253 252 252 252 252 252 252 252 252 252 252 252 252 252 252 253 253 253 254 255 257 258 259 261 263 265 266 267 268 269 268 267 265 263 261 260 258 257 256 256 256 256 256
272 271 270 269 268 267 266 265 264 264 263 262 262 261 260 259 258 257 257 257 257 257 256 256 255 255 254 254 253 253 253 253 253 253 253 253 253 253 252 252 252 252 252 252 251 251 251 251 251 251 251 251 252 252 252 252 252 252 252 252 253 253 254 256 257 258 260 262 263 265 266 267 267 267 265 264 262 260 259 257 256 255 255 255 255 255
271 270 269 268 267 266 265 264 263 263 262 261 261 260 259 258 257 256 256 256 256 256 256 255 255 254 254 253 252 252 252 252 252 252 252 252 252 251 251 251 251 251 251 251 250 250 250 250 250 250 250 250 251 251 251 251 251 251 251 251 252 253 253 255 256 257 259 261 262 264 265 266 266 265 264 262 261 259 258 256 255 255 254 254 254 254
270 269 268 267 266 265 264 263 262 262 261 260 259 259 258 257 256 255 255 255 255 254 254 254 254 253 253 252 252 251 250 250 250 251 250 250 250 250 250 250 250 250 250 250 250 249 249 249 249 249 249 250 250 250 250 250 250 250 250 251 251 252 253 254 255 256 258 259 261 262 263 264 264 264 263 261 260 258 257 255 255 254 254 254 253 253
269 268 267 267 266 265 264 263 262 261 260 259 258 257 257 256 255 254 254 253 253 252 252 252 252 252 251 251 250 250 249 249 249 249 249 249 249 249 249 249 248 248 248 248 249 248 248 248 248 248 249 249 249 249 249 249 249 249 250 250 250 251 252 253 254 255 257 258 259 261 262 263 263 262 261 260 258 257 256 255 254 253 253 253 253 252
268 267 266 265 265 264 263 262 261 260 258 257 256 256 255 254 254 253 252 252 251 251 251 251 250 250 250 249 249 248 248 248 248 248 248 248 247 247 247 247 247 247 247 247 247 247 247 247 247 247 247 248 248 248 248 248 248 248 249 249 249 250 251 251 253 254 255 257 258 260 261 261 262 261 260 259 257 256 255 254 253 253 253 253 252 252
268 267 265 264 263 262 261 260 259 258 257 256 255 254 253 253 252 252 251 250 250 249 249 249 249 249 248 248 247 247 247 246 246 246 246 246 246 246 245 245 245 246 246 246 246 246 246 246 246 246 246 246 247 247 247 247 247 247 247 248 248 249 249 250 251 253 254 256 257 258 260 260 261 260 259 257 256 254 253 252 252 252 252 252 251 251
268 267 265 264 263 261 260 259 258 257 256 255 254 253 252 251 251 250 250 249 248 248 247 247 247 247 247 246 246 246 245 245 244 244 244 244 244 244 244 244 244 244 244 244 244 244 245 245 245 245 245 245 245 245 246 246 246 246 246 247 247 248 248 249 250 252 253 255 256 258 259 259 259 259 257 256 254 253 252 251 251 251 251 251 250 250
268 267 266 264 263 261 260 258 256 255 254 253 252 251 250 250 249 249 248 248 247 246 246 246 246 246 245 245 244 244 243 243 243 243 243 243 243 243 242 242 242 242 243 243 243 243 243 244 244 244 244 244 244 244 244 245 245 245 245 246 246 247 248 249 250 251 253 254 256 257 258 259 258 257 256 254 253 251 250 250 250 250 250 250 249 249
268 267 266 265 263 262 260 258 256 254 252 251 251 250 249 248 248 248 247 247 246 245 244 244 244 244 244 244 243 242 242 241 241 241 242 242 242 241 241 241 240 241 241 241 242 242 242 242 242 243 243 243 243 243 243 243 244 244 245 245 245 246 247 248 249 250 252 253 255 256 257 258 257 256 254 253 251 250 249 249 249 249 249 249 248 247
268 267 266 265 263 262 260 258 256 253 251 250 249 249 248 247 247 246 246 246 245 244 243 243 243 243 243 242 242 241 241 240 240 240 240 240 240 240 240 239 239 239 239 240 240 240 241 241 241 241 242 242 242 242 242 243 243 243 244 244 245 245 246 247 249 250 251 253 254 255 256 256 256 254 253 251 250 248 248 248 248 248 248 248 247 246
268 267 266 265 263 262 260 259 256 254 251 249 248 247 247 246 246 245 245 245 244 243 242 242 242 242 241 241 240 240 239 239 239 239 239 239 239 239 238 238 238 238 238 238 239 239 239 240 240 240 240 241 241 241 241 242 242 242 243 243 244 245 246 247 248 249 250 252 253 254 255 255 254 253 251 250 248 247 247 247 247 247 247 246 245 245
268 267 266 264 263 261 260 258 256 254 251 248 246 245 245 245 245 244 244 244 243 242 241 241 241 241 240 240 239 239 238 238 238 238 238 238 238 238 237 237 237 237 237 237 237 238 238 238 239 239 239 239 240 240 240 241 241 241 242 242 243 244 244 246 247 248 250 251 252 253 254 253 252 251 249 248 247 246 246 246 246 246 246 245 244 243
268 266 265 264 262 261 259 257 255 253 251 248 246 244 243 243 243 243 243 243 242 242 241 240 240 239 239 239 238 238 237 237 237 237 237 237 237 237 237 236 236 236 236 236 236 237 237 237 238 238 238 239 239 239 239 239 240 240 240 241 242 242 243 245 246 247 249 250 251 252 252 252 251 249 248 246 245 245 245 245 245 245 244 243 242 241
267 266 265 263 262 260 258 256 254 252 250 247 245 243 242 242 242 242 242 242 242 241 241 240 239 239 238 238 238 237 237 237 236 236 237 237 237 236 236 236 235 235 235 235 235 236 236 236 237 237 237 237 237 238 238 238 238 239 239 240 241 241 242 244 245 246 248 249 250 251 251 250 249 247 246 245 244 244 244 244 244 244 243 242 241 240
267 265 264 263 262 260 258 256 254 251 249 246 244 242 241 241 241 241 241 241 241 241 240 240 239 238 238 237 237 237 236 236 236 236 236 236 236 236 235 235 234 234 234 234 234 235 235 235 235 236 236 236 236 236 236 237 237 238 238 239 240 241 242 242 244 245 247 248 249 250 250 249 247 245 244 243 243 243 243 243 243 242 242 241 239 238
267 266 264 263 261 260 258 256 253 251 248 246 243 241 240 240 240 240 240 240 241 241 240 239 238 238 237 237 236 236 236 236 236 236 236 236 235 235 235 234 234 233 233 233 234 234 234 234 234 235 235 235 235 235 235 236 236 237 238 238 239 240 240 241 243 244 246 247 249 249 248 246 245 243 242 242 242 242 242 242 242 241 240 239 238 236
268 266 264 263 261 259 258 256 253 251 248 245 243 241 240 239 238 239 239 240 240 240 240 239 238 237 236 236 236 235 235 235 235 235 235 235 235 235 234 234 233 233 232 232 233 233 233 233 233 234 234 234 234 234 235 235 236 236 237 238 238 239 240 241 242 244 245 247 248 247 246 244 242 241 241 241 241 241 241 241 240 240 239 237 236 234
269 267 264 263 261 259 257 255 253 250 247 245 243 241 239 238 238 237 238 238 239 239 239 239 238 237 236 235 235 235 235 235 235 235 235 235 235 234 234 233 233 232 231 231 231 232 232 232 232 233 233 233 233 233 233 234 235 235 236 237 238 239 240 241 242 243 245 246 246 245 243 241 240 240 240 240 241 241 240 240 239 238 237 236 234 233
269 267 265 262 260 259 257 255 252 250 247 244 242 241 239 238 237 237 236 236 237 237 238 238 237 236 235 234 234 234 234 234 234 234 234 234 234 234 233 232 232 231 231 230 230 230 231 231 231 231 231 231 231 232 232 233 234 234 235 236 237 238 239 240 241 242 243 244 243 241 239 238 238 238 239 240 240 240 239 239 238 237 235 234 232 231
269 267 264 262 260 258 256 254 252 250 247 244 242 240 239 237 236 236 235 234 234 235 236 236 236 235 234 234 233 233 233 233 233 233 233 233 233 233 232 232 231 230 229 229 229 229 229 229 229 229 230 230 230 230 231 231 232 233 233 234 235 236 238 239 241 242 242 241 240 238 236 236 237 238 239 239 239 239 238 237 236 235 233 232 231 230
269 266 264 261 259 257 255 253 251 249 246 244 241 239 238 236 235 234 233 232 232 233 234 234 234 234 233 232 232 231 231 231 232 232 232 232 232 232 231 231 230 229 228 228 227 227 227 227 228 228 228 228 228 229 229 230 230 231 232 233 234 236 237 239 240 240 240 238 236 235 234 235 237 238 239 239 238 238 237 236 234 233 232 230 229 229
269 266 263 260 258 256 254 252 250 248 246 243 241 238 236 235 233 232 231 230 231 231 231 231 231 231 231 231 230 229 229 230 230 230 230 230 230 230 230 229 228 228 227 226 226 226 225 226 226 227 227 227 227 227 228 228 229 230 231 233 234 235 237 238 238 236 235 233 232 232 234 236 237 238 238 237 237 236 235 234 233 231 230 229 229 228
269 266 263 260 258 255 253 251 249 247 245 242 239 237 235 233 231 230 229 230 230 230 229 228 228 228 228 228 228 227 227 228 228 228 229 229 228 228 228 227 227 226 225 225 224 224 224 224 225 225 226 226 226 226 226 227 228 229 230 232 233 234 235 234 233 231 229 229 230 232 234 236 237 237 236 236 235 234 233 232 231 230 229 228 228 228
268 265 263 260 257 254 251 249 247 245 243 240 237 234 232 230 229 228 228 228 228 227 226 226 226 225 225 224 224 224 224 225 226 226 226 227 226 226 226 225 225 224 223 223 222 222 222 223 223 224 224 224 224 224 225 226 227 228 229 230 232 232 231 229 227 225 225 227 230 233 235 236 236 236 235 234 233 232 231 230 229 228 228 227 227 226
268 264 262 259 255 250 246 243 240 238 236 234 231 229 227 226 225 225 225 224 223 222 221 222 223 223 223 222 221 221 222 222 223 224 224 224 224 224 224 223 223 222 221 221 220 220 221 221 221 221 222 222 222 223 223 224 226 227 228 229 229 228 226 224 222 222 224 227 231 234 235 236 235 235 234 232 231 230 229 228 228 227 226 226 225 223
Height
5653 5653 5653 5652 5652 5652 5651 5652 5652 5652 5651 5651 5651 5651 5651 5651 5651 5651 5651 5651 5651 5651 5651 5652 5652 5652 5652 5652 5652 5652 5653 5653 5653 5654 5654 5655 5656 5657 5657 5657 5657 5657 5658 5657 5657 5658 5658 5658 5658 5658 5658 5657 5657 5657 5657 5657 5657 5656 5656 5656 5655 5655 5655 5654 5653 5653 5652 5651 5650 5649 5648 5647 5647 5646 5645 5644 5644 5644 5643 5643 5643 5642 5642 5642 5642 5642
5649 5648 5648 5647 5647 5647 5646 5646 5646 5646 5646 5646 5646 5646 5646 5646 5646 5646 5646 5646 5647 5647 5647 5647 5647 5647 5647 5647 5648 5648 5649 5649 5649 5650 5650 5650 5651 5652 5653 5653 5653 5654 5654 5654 5654 5654 5654 5654 5654 5655 5654 5654 5654 5654 5654 5654 5653 5653 5653 5652 5652 5652 5652 5651 5651 5650 5649 5648 5647 5647 5646 5645 5644 5643 5642 5642 5642 5641 5641 5641 5640 5640 5640 5640 5640 5640
5644 5643 5643 5643 5642 5642 5641 5640 5641 5641 5641 5641 5641 5641 5641 5641 5641 5641 5642 5642 5642 5642 5642 5642 5642 5643 5643 5643 5644 5644 5645 5645 5646 5646 5646 5647 5647 5648 5648 5649 5650 5650 5650 5650 5650 5651 5651 5651 5651 5651 5651 5651 5651 5651 5651 5650 5650 5650 5650 5649 5649 5649 5649 5649 5648 5647 5647 5646 5645 5644 5643 5643 5642 5641 5640 5640 5639 5639 5639 5638 5638 5638 5638 5638 5637 5638
5639 5639 5638 5638 5638 5637 5636 5636 5635 5635 5635 5636 5636 5636 5636 5636 5636 5636 5637 5637 5637 5637 5637 5638 5638 5638 5639 5639 5640 5640 5641 5641 5642 5642 5642 5643 5643 5644 5644 5645 5646 5646 5646 5646 5647 5647 5647 5647 5647 5648 5648 5648 5648 5647 5647 5647 5647 5647 5647 5646 5646 5646 5646 5646 5645 5645 5644 5643 5642 5642 5641 5640 5639 5638 5637 5637 5637 5637 5636 5636 5636 5636 5636 5635 5635 5636
5635 5634 5634 5633 5633 5633 5632 5631 5630 5630 5630 5630 5631 5631 5631 5632 5632 5632 5632 5632 5632 5632 5633 5633 5634 5634 5635 5635 5636 5636 5637 5637 5637 5638 5638 5639 5639 5640 5641 5641 5642 5642 5642 5642 5643 5643 5643 5644 5644 5644 5644 5644 5644 5644 5644 5643 5643 5643 5643 5643 5643 5643 5643 5643 5642 5642 5641 5640 5640 5639 5638 5638 5637 5636 5635 5635 5634 5634 5634 5633 5633 5633 5633 5633 5633 5633
5630 5629 5629 5629 5628 5628 5627 5627 5626 5625 5625 5626 5626 5626 5627 5627 5627 5627 5627 5627 5628 5628 5628 5629 5629 5630 5630 5631 5631 5632 5632 5633 5633 5634 5634 5635 5635 5636 5637 5637 5637 5638 5638 5638 5639 5639 5640 5640 5641 5641 5641 5641 5641 5641 5640 5640 5640 5640 5640 5640 5640 5640 5640 5640 5639 5639 5638 5637 5637 5636 5635 5635 5634 5633 5632 5632 5632 5632 5631 5631 5631 5631 5631 5631 5631 5631
5624 5624 5624 5624 5623 5623 5623 5622 5622 5621 5621 5621 5621 5622 5622 5622 5622 5622 5623 5623 5623 5624 5624 5624 5625 5625 5626 5627 5627 5627 5628 5628 5629 5629 5630 5631 5631 5632 5632 5633 5633 5633 5634 5634 5635 5636 5636 5637 5637 5637 5637 5637 5637 5637 5637 5637 5637 5637 5637 5637 5637 5637 5637 5637 5636 5636 5635 5634 5634 5633 5632 5632 5631 5631 5630 5630 5629 5629 5629 5629 5629 5629 5629 5629 5629 5629
5619 5619 5619 5619 5618 5618 5618 5618 5617 5617 5617 5616 5616 5617 5617 5617 5618 5618 5618 5618 5619 5619 5620 5620 5620 5621 5622 5622 5622 5623 5623 5624 5624 5625 5626 5626 5627 5627 5628 5628 5629 5629 5630 5630 5631 5632 5632 5632 5633 5633 5633 5633 5633 5633 5633 5633 5633 5633 5633 5633 5633 5634 5634 5633 5633 5632 5632 5631 5631 5630 5629 5629 5628 5628 5627 5627 5627 5627 5627 5627 5627 5627 5627 5627 5627 5627
5612 5613 5613 5613 5613 5613 5612 5612 5612 5612 5612 5611 5611 5612 5612 5612 5613 5613 5614 5614 5614 5615 5615 5616 5616 5616 5617 5617 5618 5618 5619 5619 5620 5620 5621 5622 5622 5623 5623 5624 5625 5625 5626 5626 5627 5627 5628 5628 5629 5629 5629 5629 5629 5630 5630 5629 5629 5630 5630 5630 5630 5630 5630 5630 5630 5629 5629 5628 5628 5627 5627 5626 5626 5626 5625 5625 5625 5624 5624 5624 5624 5624 5624 5625 5625 5625
5607 5607 5607 5607 5608 5608 5607 5607 5607 5607 5607 5606 5606 5606 5607 5607 5608 5608 5609 5609 5610 5610 5611 5611 5611 5611 5612 5612 5613 5613 5614 5614 5615 5616 5616 5617 5617 5618 5619 5619 5620 5621 5621 5622 5622 5623 5624 5624 5625 5625 5625 5625 5626 5626 5626 5626 5626 5626 5626 5627 5627 5627 5627 5627 5627 5626 5626 5625 5625 5625 5624 5624 5624 5623 5623 5623 5622 5622 5622 5622 5622 5622 5622 5622 5622 5623
5600 5601 5601 5601 5601 5602 5602 5602 5602 5602 5602 5601 5601 5601 5602 5602 5603 5603 5603 5603 5604 5605 5605 5605 5606 5606 5607 5607 5608 5608 5609 5609 5610 5611 5612 5612 5613 5613 5614 5615 5616 5617 5617 5618 5618 5619 5620 5620 5620 5621 5621 5621 5622 5622 5622 5622 5622 5622 5623 5623 5623 5624 5624 5624 5623 5623 5622 5622 5622 5622 5622 5621 5621 5621 5621 5621 5620 5620 5620 5620 5620 5620 5620 5620 5621 5621
5593 5594 5594 5594 5595 5595 5596 5596 5596 5596 5596 5596 5595 5595 5596 5597 5597 5597 5597 5597 5598 5600 5600 5600 5600 5601 5602 5602 5602 5603 5604 5604 5605 5606 5607 5607 5608 5609 5609 5610 5611 5612 5613 5613 5614 5614 5615 5616 5616 5616 5617 5617 5617 5617 5618 5618 5618 5618 5619 5620 5620 5620 5621 5621 5620 5620 5619 5619 5619 5619 5618 5618 5618 5618 5618 5618 5618 5618 5618 5618 5618 5618 5618 5618 5618 5619
5587 5587 5588 5588 5588 5589 5589 5590 5590 5590 5590 5590 5590 5589 5590 5591 5592 5592 5591 5591 5592 5594 5594 5594 5595 5596 5596 5597 5597 5598 5598 5599 5600 5600 5601 5602 5603 5604 5605 5605 5606 5607 5608 5609 5609 5610 5611 5611 5612 5612 5612 5613 5613 5613 5614 5614 5614 5615 5615 5616 5617 5617 5617 5617 5617 5617 5616 5616 5616 5616 5615 5615 5616 5616 5616 5616 5616 5616 5616 5616 5616 5616 5616 5616 5616 5617
5581 5581 5581 5581 5582 5582 5583 5583 5583 5583 5583 5584 5584 5584 5584 5584 5585 5585 5585 5585 5587 5588 5589 5589 5589 5590 5591 5592 5592 5592 5593 5593 5594 5595 5596 5597 5598 5599 5600 5600 5601 5602 5603 5604 5605 5605 5606 5607 5607 5607 5608 5608 5609 5609 5609 5610 5610 5611 5612 5612 5613 5613 5613 5614 5614 5613 5613 5613 5612 5612 5612 5612 5612 5613 5613 5613 5613 5613 5613 5613 5613 5613 5613 5614 5614 5614
5574 5574 5574 5574 5575 5576 5577 5577 5577 5577 5577 5578 5578 5578 5577 5578 5578 5579 5579 5579 5580 5582 5582 5582 5583 5584 5585 5586 5586 5587 5587 5588 5589 5590 5591 5592 5592 5593 5594 5595 5596 5597 5598 5599 5600 5601 5602 5602 5602 5603 5604 5604 5605 5605 5605 5606 5606 5607 5608 5608 5609 5610 5610 5610 5610 5610 5610 5610 5609 5609 5609 5609 5609 5610 5610 5610 5610 5610 5610 5611 5611 5611 5611 5611 5612 5612
5568 5567 5567 5567 5569 5570 5570 5571 5571 5571 5571 5572 5572 5571 5571 5571 5572 5572 5573 5573 5573 5575 5576 5576 5577 5578 5579 5580 5581 5581 5581 5582 5583 5584 5586 5587 5587 5588 5589 5589 5590 5591 5593 5594 5595 5596 5597 5597 5598 5598 5599 5600 5600 5601 5601 5602 5602 5603 5604 5605 5605 5606 5606 5607 5607 5607 5607 5607 5607 5607 5606 5606 5607 5607 5607 5607 5607 5607 5608 5608 5608 5608 5609 5609 5609 5609
5560 5560 5560 5561 5562 5562 5563 5564 5564 5564 5565 5565 5565 5565 5565 5565 5565 5566 5567 5567 5567 5568 5569 5569 5571 5572 5573 5575 5576 5576 5576 5576 5577 5578 5580 5581 5582 5583 5584 5584 5585 5586 5588 5589 5590 5591 5592 5592 5593 5594 5595 5595 5596 5596 5597 5597 5598 5599 5600 5601 5602 5602 5602 5603 5603 5603 5603 5603 5603 5603 5603 5603 5604 5604 5604 5604 5605 5605 5605 5605 5606 5606 5606 5606 5607 5607
5553 5554 5554 5554 5555 5555 5556 5557 5557 5557 5558 5558 5558 5558 5559 5558 5559 5559 5560 5560 5561 5562 5562 5563 5564 5566 5567 5568 5569 5570 5571 5570 5570 5571 5574 5575 5576 5577 5579 5579 5579 5580 5582 5584 5585 5586 5587 5588 5588 5589 5590 5591 5591 5592 5592 5593 5594 5595 5596 5597 5598 5598 5599 5599 5599 5599 5600 5600 5600 5600 5600 5601 5601 5601 5601 5602 5602 5602 5602 5602 5603 5603 5603 5604 5604 5604
5545 5546 5547 5547 5547 5548 5549 5549 5550 5550 5550 5551 5551 5551 5551 5552 5552 5552 5553 5553 5554 5555 5556 5557 5558 5559 5561 5562 5562 5563 5565 5564 5564 5565 5567 5569 5571 5572 5573 5574 5574 5575 5577 5579 5580 5581 5582 5583 5584 5585 5585 5586 5587 5587 5588 5589 5590 5591 5592 5593 5594 5594 5595 5595 5595 5596 5596 5597 5597 5597 5597 5597 5598 5598 5599 5599 5599 5599 5600 5600 5600 5600 5601 5601 5601 5602
5536 5538 5539 5540 5540 5540 5541 5542 5543 5544 5543 5543 5543 5543 5544 5544 5545 5546 5546 5547 5548 5548 5549 5551 5552 5553 5555 5556 5556 5557 5558 5558 5558 5559 5561 5563 5565 5567 5568 5569 5569 5570 5572 5574 5575 5576 5577 5578 5579 5580 5581 5581 5582 5583 5584 5585 5586 5587 5588 5589 5590 5590 5591 5591 5592 5592 5592 5593 5593 5594 5594 5594 5595 5595 5596 5596 5597 5597 5597 5597 5597 5598 5598 5598 5599 5599
5527 5529 5531 5532 5532 5532 5532 5534 5536 5537 5536 5536 5535 5535 5536 5537 5538 5539 5539 5540 5541 5542 5542 5544 5545 5547 5549 5549 5549 5550 5551 5552 5552 5553 5555 5557 5560 5561 5563 5564 5564 5565 5567 5569 5570 5572 5572 5573 5574 5575 5576 5577 5577 5578 5579 5581 5582 5583 5584 5585 5586 5586 5587 5587 5588 5588 5589 5589 5590 5590 5591 5591 5592 5592 5593 5593 5593 5594 5594 5594 5595 5595 5596 5596 5596 5596
5517 5519 5522 5524 5524 5523 5523 5525 5527 5528 5528 5528 5527 5527 5528 5530 5531 5532 5532 5533 5534 5534 5535 5537 5538 5540 5542 5542 5542 5543 5545 5547 5547 5547 5549 5552 5553 5555 5558 5559 5559 5560 5562 5563 5565 5567 5567 5568 5569 5570 5571 5572 5572 5574 5575 5576 5577 5578 5580 5581 5582 5582 5583 5583 5584 5585 5585 5586 5586 5587 5587 5588 5588 5589 5590 5590 5591 5591 5591 5592 5592 5592 5593 5593 5593 5593
5507 5509 5512 5513 5514 5515 5515 5516 5517 5518 5519 5519 5520 5520 5521 5523 5524 5524 5525 5526 5526 5527 5528 5530 5532 5533 5534 5536 5536 5537 5539 5541 5541 5542 5543 5545 5547 5549 5552 5553 5554 5554 5556 5558 5560 5561 5562 5563 5563 5564 5566 5567 5568 5569 5570 5572 5573 5574 5575 5576 5577 5578 5579 5579 5580 5581 5582 5582 5583 5583 5584 5585 5585 5586 5587 5587 5587 5588 5588 5589 5589 5590 5590 5590 5591 5591
5496 5497 5500 5502 5503 5504 5505 5506 5507 5508 5509 5510 5511 5512 5512 5514 5515 5516 5516 5517 5518 5520 5521 5523 5524 5526 5527 5529 5531 5532 5533 5534 5535 5537 5537 5539 5541 5544 5546 5547 5548 5549 5550 5553 5555 5556 5556 5557 5558 5559 5561 5562 5563 5564 5566 5567 5568 5570 5571 5572 5573 5574 5575 5575 5576 5577 5578 5578 5579 5580 5580 5581 5582 5582 5583 5584 5584 5585 5585 5586 5586 5587 5587 5587 5588 5588
5484 5486 5487 5489 5491 5493 5493 5495 5497 5498 5500 5502 5502 5503 5504 5506 5506 5507 5507 5508 5510 5512 5514 5515 5517 5518 5520 5523 5525 5526 5527 5528 5529 5530 5531 5533 5535 5537 5540 5541 5542 5543 5544 5547 5549 5550 5551 5552 5553 5554 5556 5557 5558 5560 5561 5562 5564 5565 5567 5568 5569 5570 5571 5571 5572 5573 5574 5575 5575 5576 5577 5577 5578 5579 5580 5580 5581 5582 5582 5583 5583 5584 5584 5585 5585 5585
5472 5473 5475 5477 5479 5481 5482 5483 5486 5488 5491 5493 5494 5495 5497 5497 5497 5498 5498 5500 5502 5504 5506 5507 5509 5511 5514 5517 5518 5519 5520 5522 5523 5524 5525 5527 5528 5531 5533 5535 5537 5537 5539 5541 5543 5545 5545 5546 5547 5549 5551 5552 5553 5555 5557 5558 5559 5561 5562 5563 5565 5566 5567 5567 5568 5569 5570 5571 5572 5572 5573 5574 5575 5576 5576 5577 5578 5578 5579 5580 5580 5581 5581 5582 5582 5582
5459 5461 5462 5464 5466 5468 5470 5471 5473 5476 5479 5481 5483 5485 5486 5487 5488 5488 5488 5491 5493 5496 5498 5499 5501 5504 5507 5510 5511 5512 5514 5516 5516 5517 5518 5521 5522 5524 5526 5529 5531 5532 5533 5535 5537 5539 5540 5541 5542 5544 5546 5547 5549 5550 5552 5553 5555 5556 5558 5559 5560 5561 5562 5563 5564 5565 5566 5567 5568 5569 5569 5570 5571 5572 5573 5574 5574 5575 5576 5577 5577 5578 5578 5579 5579 5579
5446 5447 5449 5451 5453 5455 5457 5458 5460 5463 5465 5468 5471 5472 5474 5475 5477 5478 5479 5482 5485 5488 5490 5490 5492 5496 5499 5502 5504 5506 5508 5509 5509 5510 5512 5514 5516 5517 5519 5523 5525 5526 5527 5529 5531 5533 5535 5536 5537 5539 5541 5542 5544 5545 5547 5548 5550 5552 5553 5555 5556 5557 5558 5559 5560 5561 5562 5563 5564 5565 5566 5567 5568 5569 5569 5570 5571 5572 5573 5573 5574 5575 5575 5576 5576 5577
5433 5434 5436 5438 5440 5442 5444 5446 5448 5450 5452 5455 5457 5460 5461 5463 5465 5467 5470 5473 5477 5479 5480 5481 5483 5487 5491 5494 5496 5499 5501 5502 5502 5503 5506 5507 5508 5510 5513 5517 5518 5519 5521 5523 5525 5527 5529 5530 5532 5534 5536 5537 5539 5541 5542 5544 5546 5547 5549 5550 5552 5553 5554 5555 5556 5557 5558 5559 5560 5561 5562 5563 5564 5565 5566 5567 5568 5569 5570 5570 5571 5572 5572 5572 5573 5574
5421 5421 5423 5425 5427 5428 5430 5433 5435 5437 5439 5442 5444 5447 5449 5451 5454 5457 5460 5463 5466 5468 5470 5472 5475 5479 5482 5485 5488 5491 5492 5494 5496 5497 5499 5500 5501 5503 5507 5510 5512 5513 5515 5517 5519 5520 5522 5525 5527 5529 5531 5532 5534 5536 5537 5539 5541 5542 5544 5546 5547 5548 5550 5551 5552 5553 5554 5555 5556 5557 5558 5559 5560 5562 5562 5564 5565 5566 5567 5567 5568 5568 5569 5569 5570 5571
5408 5409 5411 5412 5413 5415 5417 5420 5422 5425 5427 5429 5432 5434 5437 5439 5442 5445 5449 5452 5455 5457 5460 5462 5466 5469 5473 5477 5480 5482 5484 5488 5490 5491 5491 5492 5493 5496 5500 5503 5505 5506 5509 5511 5513 5514 5516 5519 5522 5524 5526 5527 5529 5531 5533 5534 5536 5538 5539 5541 5542 5544 5545 5547 5548 5549 5550 5551 5552 5553 5555 5556 5557 5558 5559 5560 5561 5562 5563 5564 5565 5565 5566 5566 5567 5568
5394 5396 5398 5400 5401 5403 5405 5408 5410 5412 5414 5417 5419 5422 5424 5427 5430 5433 5437 5441 5444 5447 5450 5453 5456 5459 5463 5467 5471 5474 5477 5482 5483 5483 5482 5484 5486 5489 5493 5497 5498 5500 5502 5505 5507 5508 5510 5513 5516 5519 5521 5522 5524 5526 5528 5530 5531 5533 5535 5537 5538 5539 5541 5542 5543 5545 5546 5547 5548 5550 5551 5552 5553 5555 5556 5557 5558 5559 5560 5561 5561 5562 5562 5563 5564 5565
5381 5383 5385 5387 5388 5391 5394 5396 5398 5400 5402 5404 5407 5410 5413 5416 5419 5422 5425 5428 5433 5437 5440 5443 5446 5449 5453 5457 5462 5466 5470 5474 5475 5474 5474 5476 5478 5482 5486 5489 5492 5493 5496 5499 5501 5502 5505 5507 5510 5512 5515 5517 5519 5521 5522 5525 5527 5528 5530 5532 5533 5535 5536 5538 5539 5541 5542 5543 5545 5546 5547 5549 5550 5551 5552 5553 5555 5556 5557 5557 5558 5559 5559 5560 5561 5562
5368 5370 5372 5374 5376 5378 5382 5385 5387 5388 5390 5392 5394 5397 5401 5405 5408 5411 5414 5417 5421 5426 5430 5432 5436 5439 5443 5448 5453 5457 5462 5465 5467 5466 5466 5468 5471 5474 5478 5482 5485 5487 5489 5492 5494 5497 5499 5502 5504 5507 5509 5511 5513 5516 5517 5520 5522 5523 5525 5527 5528 5530 5532 5533 5535 5537 5538 5539 5541 5542 5543 5545 5546 5547 5549 5550 5551 5552 5553 5554 5555 5555 5556 5557 5558 5559
5356 5358 5360 5362 5364 5367 5370 5373 5376 5378 5379 5381 5383 5386 5389 5393 5397 5400 5402 5406 5410 5415 5419 5423 5426 5430 5434 5438 5443 5448 5452 5456 5458 5458 5458 5460 5463 5467 5471 5475 5478 5480 5483 5485 5488 5490 5493 5496 5498 5501 5503 5506 5508 5511 5513 5515 5517 5519 5521 5522 5524 5526 5527 5529 5531 5532 5534 5535 5537 5538 5540 5541 5542 5544 5545 5547 5548 5549 5550 5551 5551 5552 5553 5554 5555 5556
5344 5346 5348 5350 5352 5355 5358 5361 5364 5367 5369 5371 5373 5375 5378 5381 5384 5388 5391 5395 5399 5404 5409 5412 5416 5420 5424 5429 5434 5439 5443 5447 5449 5450 5450 5452 5455 5459 5464 5467 5471 5474 5477 5479 5482 5484 5487 5490 5493 5495 5498 5500 5502 5505 5508 5510 5512 5514 5516 5517 5520 5522 5523 5525 5527 5528 5530 5532 5533 5535 5536 5538 5539 5540 5542 5543 5544 5546 5547 5547 5548 5549 5550 5551 5552 5553
5333 5335 5337 5339 5342 5344 5347 5350 5353 5356 5359 5362 5364 5366 5368 5371 5374 5377 5381 5385 5389 5393 5398 5402 5407 5411 5415 5420 5425 5430 5434 5438 5440 5442 5442 5444 5447 5452 5457 5460 5464 5467 5471 5473 5475 5478 5482 5485 5487 5490 5492 5495 5497 5500 5503 5506 5508 5510 5511 5513 5515 5517 5519 5521 5523 5524 5526 5527 5529 5531 5532 5534 5535 5537 5538 5540 5541 5542 5543 5544 5545 5546 5547 5548 5549 5550
5323 5324 5326 5328 5331 5333 5336 5338 5342 5345 5348 5352 5354 5356 5358 5361 5364 5367 5370 5375 5379 5383 5387 5392 5397 5401 5406 5411 5416 5420 5424 5428 5431 5433 5435 5437 5441 5445 5450 5454 5457 5461 5465 5467 5470 5472 5476 5479 5481 5484 5487 5489 5492 5495 5498 5501 5503 5505 5507 5509 5511 5513 5515 5517 5519 5520 5522 5524 5526 5527 5529 5531 5532 5533 5535 5536 5537 5539 5540 5541 5542 5542 5544 5545 5546 5547
5313 5315 5316 5318 5320 5323 5325 5328 5331 5334 5338 5341 5344 5347 5349 5351 5354 5357 5361 5365 5370 5374 5378 5382 5387 5392 5397 5402 5407 5411 5415 5419 5422 5425 5427 5430 5434 5438 5443 5447 5451 5455 5458 5462 5464 5467 5470 5472 5475 5478 5481 5485 5488 5491 5494 5496 5498 5500 5502 5505 5507 5509 5511 5513 5515 5517 5518 5520 5522 5524 5525 5527 5528 5530 5531 5532 5534 5535 5536 5537 5538 5539 5540 5542 5542 5543
5305 5306 5307 5308 5310 5312 5315 5318 5321 5324 5327 5331 5334 5337 5339 5342 5345 5348 5352 5356 5362 5366 5369 5374 5379 5384 5388 5393 5398 5403 5407 5411 5415 5417 5421 5424 5427 5432 5436 5440 5445 5448 5452 5456 5458 5461 5464 5467 5470 5473 5477 5480 5483 5486 5488 5491 5493 5496 5498 5501 5502 5505 5507 5509 5511 5512 5514 5516 5518 5520 5522 5523 5525 5526 5528 5529 5531 5532 5533 5534 5535 5536 5537 5538 5539 5541
5297 5297 5298 5300 5302 5304 5306 5308 5311 5314 5317 5321 5324 5327 5331 5334 5337 5341 5345 5349 5354 5359 5362 5366 5371 5376 5381 5386 5391 5395 5399 5404 5407 5411 5414 5418 5422 5425 5430 5434 5438 5443 5447 5451 5453 5456 5459 5462 5465 5468 5472 5475 5478 5481 5484 5487 5489 5491 5494 5496 5498 5501 5503 5506 5507 5509 5511 5512 5514 5516 5518 5520 5521 5523 5524 5526 5527 5528 5529 5531 5532 5533 5534 5535 5537 5537
5290 5291 5292 5292 5294 5295 5297 5299 5302 5306 5309 5312 5315 5318 5322 5326 5329 5334 5338 5343 5348 5352 5354 5358 5363 5369 5374 5379 5383 5388 5392 5397 5401 5404 5408 5412 5416 5420 5424 5428 5432 5437 5441 5445 5448 5451 5454 5457 5460 5463 5467 5470 5473 5477 5480 5482 5485 5487 5490 5492 5494 5497 5500 5502 5503 5505 5507 5509 5511 5513 5515 5516 5518 5519 5521 5522 5523 5525 5526 5527 5528 5530 5531 5532 5533 5535
5283 5284 5285 5286 5287 5288 5289 5292 5295 5298 5301 5305 5307 5311 5314 5318 5322 5327 5331 5337 5341 5345 5348 5352 5356 5362 5367 5372 5377 5382 5386 5391 5395 5399 5403 5407 5411 5414 5418 5422 5427 5432 5436 5439 5443 5446 5449 5452 5456 5459 5462 5466 5469 5472 5475 5478 5481 5483 5486 5488 5491 5493 5496 5498 5500 5502 5504 5506 5507 5509 5511 5513 5514 5516 5517 5518 5520 5522 5523 5524 5526 5527 5528 5529 5531 5532
5276 5277 5278 5280 5280 5281 5283 5285 5287 5290 5293 5296 5299 5303 5307 5311 5315 5320 5325 5331 5335 5339 5342 5345 5350 5355 5361 5365 5370 5375 5380 5385 5389 5394 5398 5401 5405 5409 5413 5417 5422 5426 5431 5434 5437 5441 5444 5448 5451 5454 5458 5462 5465 5469 5471 5474 5476 5479 5482 5484 5487 5489 5491 5494 5496 5499 5501 5502 5504 5506 5508 5509 5511 5512 5514 5515 5517 5518 5520 5521 5522 5524 5525 5526 5527 5529
5270 5272 5272 5273 5275 5276 5277 5278 5280 5283 5286 5289 5292 5297 5301 5305 5309 5314 5320 5325 5330 5334 5337 5339 5344 5350 5355 5359 5364 5369 5375 5380 5385 5389 5393 5397 5401 5405 5409 5413 5417 5421 5426 5429 5432 5436 5439 5443 5447 5450 5454 5457 5461 5464 5467 5470 5472 5475 5478 5481 5483 5486 5488 5491 5493 5495 5497 5499 5501 5502 5504 5506 5507 5509 5511 5512 5514 5515 5517 5518 5519 5521 5522 5523 5524 5526
5265 5266 5267 5268 5269 5270 5271 5272 5275 5277 5280 5283 5287 5291 5295 5299 5304 5309 5315 5321 5325 5328 5331 5334 5339 5344 5349 5353 5358 5364 5370 5375 5380 5384 5388 5392 5396 5400 5404 5408 5412 5417 5421 5424 5428 5431 5435 5439 5442 5446 5450 5453 5457 5460 5463 5466 5469 5472 5474 5477 5480 5483 5485 5487 5489 5491 5493 5496 5498 5499 5501 5502 5504 5506 5508 5509 5511 5512 5513 5515 5516 5517 5519 5520 5522 5523
5260 5261 5262 5263 5264 5265 5266 5267 5270 5273 5275 5278 5282 5286 5290 5294 5299 5304 5310 5315 5319 5322 5325 5330 5336 5340 5344 5348 5354 5360 5365 5369 5374 5379 5384 5388 5392 5396 5400 5404 5409 5413 5417 5420 5424 5427 5432 5435 5438 5442 5446 5449 5452 5456 5459 5462 5466 5468 5471 5473 5477 5479 5481 5484 5486 5488 5490 5492 5494 5496 5498 5500 5502 5503 5505 5506 5508 5509 5511 5512 5513 5515 5516 5517 5519 5520
5256 5256 5257 5258 5259 5260 5262 5263 5266 5268 5271 5274 5277 5281 5285 5290 5294 5300 5305 5310 5313 5317 5322 5327 5332 5336 5340 5345 5350 5355 5360 5365 5370 5375 5379 5384 5388 5392 5396 5400 5405 5409 5412 5416 5420 5424 5428 5431 5435 5438 5442 5446 5449 5452 5456 5459 5462 5465 5467 5470 5473 5476 5478 5480 5483 5485 5487 5489 5491 5493 5495 5497 5498 5500 5502 5503 5505 5506 5508 5509 5510 5512 5513 5514 5516 5517
5252 5252 5253 5254 5255 5257 5258 5260 5262 5264 5267 5270 5273 5277 5281 5286 5290 5295 5300 5304 5308 5313 5318 5323 5327 5332 5336 5341 5346 5351 5356 5361 5366 5371 5375 5380 5384 5388 5392 5397 5401 5405 5409 5412 5416 5420 5424 5428 5432 5435 5439 5443 5446 5449 5453 5456 5459 5462 5465 5467 5470 5472 5475 5477 5480 5482 5484 5486 5488 5490 5492 5494 5495 5497 5498 5500 5502 5503 5505 5506 5507 5509 5510 5512 5513 5515
5249 5249 5250 5251 5252 5254 5255 5257 5259 5262 5264 5267 5270 5274 5278 5282 5287 5291 5296 5300 5305 5310 5315 5320 5325 5329 5333 5338 5342 5347 5352 5357 5362 5367 5372 5376 5380 5385 5389 5393 5397 5402 5405 5409 5413 5417 5421 5425 5429 5432 5436 5439 5443 5447 5450 5453 5456 5459 5462 5465 5467 5470 5472 5474 5477 5479 5481 5483 5485 5487 5489 5491 5492 5494 5496 5497 5498 5500 5502 5503 5505 5506 5507 5509 5510 5512
5246 5247 5247 5249 5250 5251 5253 5255 5257 5259 5262 5265 5268 5272 5275 5279 5284 5288 5293 5297 5302 5307 5313 5318 5322 5327 5331 5335 5339 5344 5349 5354 5358 5363 5368 5372 5377 5382 5386 5390 5394 5398 5402 5406 5410 5414 5417 5422 5426 5429 5433 5437 5440 5443 5447 5450 5453 5456 5458 5461 5464 5467 5469 5472 5474 5476 5478 5481 5482 5484 5486 5487 5489 5491 5492 5494 5496 5497 5499 5501 5502 5504 5505 5506 5508 5510